Weather in Bol'shoye Oparino

Russia / Mari El Republic     56°39′34″N   49°50′59″E
temp.,
°C
wind,
m/s
gust,
m/s
humid.,
%
clouds,
%
prec.,
mm/h
press.,
hPa
HPBL,
m
23 october, sat
sat2300:00+9wsw714785 0.0 999825
03:00+7sw6137971 0.0 1001644
06:00+6wsw61381100 0.0 1002688
09:00+7wsw61176100 0.0 1004954
12:00+8wsw61063100 0.0 10061087
15:00+8sw6106622 0.0 10061061
18:00+6sw410765 0.0 1008268
21:00+4sw410805 0.0 1008232
24 october, sun
sun2400:00+4ssw398396 0.0 1008198
03:00+3sw41081100 0.0 1008270
06:00+2sw37925 0.0 1007140
09:00+4wsw41081100 0.0 1007470
12:00+6wsw7106372 0.0 10081240
15:00+6w596673 0.1 10091226
18:00+4w4874100 0.0 1011697
21:00+4sw4773100 0.0 1011391
25 october, mon
mon2500:00+3wsw4781100 0.0 1012439
03:00+3wsw2389100 0.0 1012115
06:00+2wnw2598100 0.9 1013456
09:000n51094100 2.5 1016664
12:00+2n796218 0.3 10181102
15:00+2nnw59615 0.3 1020961
18:00−2nw410775 0.0 1023266
21:00−3nw39815 0.0 1024221
26 october, tue
tue2600:00−3wnw35815 0.0 1025118
03:00−3w248156 0.0 102574
06:00−2ssw387698 0.0 1024216
09:00+1sw51160100 0.0 1023715
12:00+2sw61067100 0.1 1021693
15:00+2sw51169100 0.1 1019792
18:00+1sw51074100 0.0 1019381
21:000sw4982100 0.0 1019270
27 october, wed
wed2700:00−2sw389028 0.0 1018178
03:00−2sw389297 0.0 1018195
06:00−1sw4990100 0.0 1017248
09:00+1sw51078100 0.0 1016377
12:00+3sw5968100 0.0 1015541
15:00+3sw51171100 0.0 1014525
18:00+3sw51271100 0.0 1013512
21:00+2sw51272100 0.0 1012521